Torna al catalogo

RADUGA 20

AttivoMilitareGEO
NORAD 17611·PAYLOAD·🇷🇺 Russia

Lanciato Mar 19, 1987 da Baikonur Cosmodrome

Loading…

TLE

AggiornatoSource: Space-Track

Epoca: Sep 14, 2026, 09:52 UTC

1 17611U 87028A   26257.41180010 -.00000085  00000-0  00000-0 0  9992
2 17611  13.1806 327.7750 0026709 178.3145 244.2039  0.95960554139179

Traccia RADUGA 20 in tempo reale con AllMySat

Download on the App Store